Wind_Speed
24 23 24 24 25 25 25 25 25 25 25 26 26 26 26 26 26 26 26 27 27 28 29 30 30 30 30 30 31 30 30 30 30 32 27 20 23 25 21 19 18 16 15 15 14 13 12 12 12 13 14 14 15 14 17 20 23 24 20 19 19 18 15 12 7 1 4 6 6 12 10 10 9 10 13 12 9 9 15 17 15 15 12 11 11 10 10 10
24 24 24 24 24 25 25 25 25 25 25 25 25 26 26 26 26 26 26 26 27 27 28 29 30 30 30 31 31 30 31 30 32 32 22 19 26 25 21 19 18 17 16 15 14 13 12 12 12 13 13 14 15 16 19 22 24 23 21 21 19 15 12 10 6 3 3 5 5 9 7 11 9 9 11 12 12 12 16 18 15 16 15 12 12 12 12 11
26 25 25 25 25 25 25 25 25 25 24 25 25 25 25 25 25 25 26 26 26 26 27 28 29 30 30 30 31 31 30 31 33 29 19 22 26 23 21 20 19 18 17 16 16 15 15 15 16 15 13 14 16 18 21 23 24 22 22 22 17 15 11 9 5 1 2 5 1 8 7 15 11 8 12 10 14 14 14 17 14 13 12 11 11 11 11 12
27 26 26 25 25 25 25 25 25 25 25 24 24 24 24 24 24 24 25 26 26 26 26 27 28 29 30 30 30 30 30 31 32 25 22 26 25 23 24 21 20 19 18 18 17 17 18 18 18 18 17 16 17 19 22 24 23 21 23 21 16 14 9 9 3 3 2 4 2 7 8 17 13 10 13 11 12 13 11 11 8 9 10 10 10 10 11 11
28 27 27 26 26 25 25 25 25 25 25 25 24 23 23 23 23 24 24 25 25 26 26 26 28 29 29 30 30 30 29 29 29 25 25 26 24 24 24 22 22 20 20 20 19 19 19 19 19 20 20 19 19 21 22 24 22 19 22 19 12 11 8 10 1 3 3 1 4 9 12 16 16 13 12 12 11 10 10 8 5 6 7 8 9 10 11 10
30 29 28 27 27 27 26 25 25 26 26 25 24 23 22 22 22 23 24 24 25 25 26 26 27 28 28 29 30 30 29 25 22 23 26 25 25 25 24 24 24 22 22 22 20 20 20 20 21 20 21 22 23 23 21 20 16 15 17 15 10 10 10 9 0 3 2 5 9 13 13 12 13 13 7 7 11 11 11 7 5 6 6 7 8 9 9 9
30 30 29 28 28 27 27 26 25 26 25 25 24 23 22 21 22 23 23 24 25 25 26 26 27 28 28 30 30 30 32 27 19 18 22 25 25 25 26 26 25 25 24 22 22 21 21 22 22 21 22 24 25 24 21 17 13 13 12 10 8 8 9 7 3 5 7 7 12 14 12 7 10 12 7 5 8 12 12 8 8 8 7 7 7 8 8 9
30 30 30 30 29 28 27 27 26 26 25 25 25 23 22 21 21 22 23 24 24 25 26 26 28 27 28 30 30 32 32 27 21 18 18 22 26 27 27 28 27 26 24 23 22 21 22 23 22 22 24 26 25 23 18 13 12 14 11 8 10 11 9 7 6 7 8 9 12 15 11 5 10 11 8 6 5 9 11 11 11 10 9 8 7 8 9 11
29 28 29 30 29 29 28 28 27 26 26 25 24 24 22 21 21 21 23 23 23 25 25 26 28 27 29 30 31 32 26 20 22 23 20 20 24 28 28 28 28 26 25 24 23 23 24 23 22 22 24 25 23 22 16 12 12 13 10 6 7 9 10 9 7 7 9 11 11 15 11 3 7 7 5 5 6 11 14 14 13 11 11 10 9 9 11 13
28 28 29 29 29 29 28 28 28 27 26 25 24 23 23 22 21 21 22 23 24 24 25 27 27 28 30 30 32 29 19 20 26 28 26 24 23 25 28 28 28 27 26 25 25 25 23 21 20 21 23 24 23 21 17 15 14 12 10 10 10 9 9 9 8 6 9 12 12 15 14 6 5 6 9 10 10 14 15 16 14 12 12 12 11 11 13 14
28 28 29 29 29 28 27 27 27 28 27 25 24 23 23 23 22 22 22 22 23 23 25 26 27 29 30 31 32 24 19 25 30 29 30 29 25 24 25 27 28 28 27 26 26 24 21 19 20 22 23 24 24 21 19 18 15 13 10 13 15 13 11 11 9 9 9 10 11 14 16 15 9 9 12 16 13 13 14 16 15 13 13 13 13 13 15 16
28 27 28 29 27 27 27 27 26 27 27 25 24 22 23 23 23 22 21 22 23 23 25 25 27 29 30 33 28 18 20 25 28 30 30 29 28 27 25 25 27 28 27 27 25 23 21 21 23 25 23 23 24 19 18 17 13 12 11 12 13 13 13 12 11 11 10 8 9 11 15 21 14 10 17 20 15 15 14 14 15 15 15 14 14 14 15 14
30 29 28 28 27 27 28 28 26 25 26 26 24 22 22 23 23 22 22 22 22 23 24 26 28 28 32 33 20 16 23 25 28 31 31 31 30 30 28 26 25 27 27 26 25 22 22 23 25 26 23 24 25 19 17 16 13 10 11 14 14 12 13 13 13 12 12 9 10 12 14 18 13 12 21 22 18 19 16 16 16 15 14 13 13 14 14 11
31 31 29 29 29 27 27 27 26 24 25 25 24 23 22 22 23 23 22 21 21 23 24 26 27 28 32 29 18 21 26 26 29 32 32 32 30 30 30 27 24 26 27 26 25 23 23 24 25 26 25 26 26 20 17 17 14 9 10 14 15 13 13 13 14 13 12 11 11 14 15 16 14 17 22 20 20 19 17 18 17 15 14 13 13 13 13 10
31 30 30 31 30 27 27 26 25 24 23 24 23 23 22 21 22 23 22 21 22 23 24 25 26 29 31 25 21 27 31 30 31 31 31 31 30 31 30 27 23 24 27 27 27 26 25 25 27 29 28 26 23 20 18 17 15 10 10 14 15 13 12 12 14 15 12 10 12 14 16 15 14 20 23 19 21 20 18 17 16 17 17 15 15 14 12 9
34 31 31 31 29 28 28 25 24 24 23 22 22 23 22 20 21 23 22 22 22 23 24 26 27 29 27 21 23 30 34 30 27 29 29 29 28 29 30 28 25 24 28 29 29 28 27 28 30 30 30 28 24 21 18 16 16 13 11 13 13 13 13 13 14 16 14 11 13 15 15 13 12 20 27 24 22 23 21 18 17 19 19 18 17 14 11 8
35 33 30 30 30 28 27 26 24 23 23 21 21 22 20 20 20 21 22 22 22 22 24 26 27 27 21 19 23 29 32 28 26 28 27 26 25 24 28 31 28 26 28 30 31 32 31 31 32 32 32 31 27 21 17 19 20 18 14 14 14 13 15 15 16 17 16 14 14 16 14 9 8 16 27 28 25 27 26 22 21 21 19 19 16 13 11 9
33 35 32 29 30 29 27 27 24 21 22 20 20 21 18 18 18 19 21 21 22 23 25 27 26 23 18 18 20 20 27 30 29 28 27 27 25 23 27 31 30 26 27 31 33 34 34 33 33 33 34 34 30 25 23 24 24 20 16 17 16 15 15 17 19 18 18 17 15 17 17 8 7 15 25 31 31 31 29 24 23 21 18 17 16 14 10 9
29 34 34 30 30 30 27 26 25 21 21 20 18 18 16 16 17 18 20 22 24 24 23 23 23 21 16 18 21 21 28 35 35 32 31 30 27 25 25 28 30 27 26 30 34 36 35 34 35 37 39 39 35 30 28 25 23 21 16 16 18 18 18 19 19 17 18 20 16 17 18 12 17 27 32 37 37 35 30 25 24 20 19 19 17 14 11 11
26 30 34 32 31 31 27 26 25 21 20 19 17 15 14 14 15 18 22 24 24 22 23 22 20 21 18 17 23 25 28 36 41 38 35 33 29 26 24 25 29 29 28 29 32 35 35 36 40 43 43 42 37 31 27 24 23 21 16 16 19 20 21 20 19 16 17 20 17 17 17 17 30 36 35 36 35 33 29 26 25 23 23 22 18 15 14 13
23 26 30 30 30 31 28 26 24 21 19 17 14 12 10 10 14 17 22 24 24 25 27 26 22 22 22 19 21 24 26 35 43 41 38 36 32 29 27 27 31 32 31 28 28 33 36 39 44 44 41 40 36 30 26 25 24 22 20 20 19 20 22 20 19 16 17 20 20 20 19 26 36 35 33 33 30 28 26 24 24 25 25 22 18 16 14 12
20 23 25 27 28 30 29 25 22 22 19 15 12 10 7 9 14 16 19 22 25 27 28 29 26 22 24 22 23 27 28 34 41 42 41 38 36 34 30 30 33 33 31 27 28 35 38 42 43 40 38 37 33 29 28 28 27 25 25 23 21 22 20 20 22 17 20 25 24 24 23 32 35 33 30 29 26 24 24 23 23 24 24 21 18 15 13 13
18 20 22 23 25 28 28 24 22 21 18 14 10 8 8 13 17 16 18 21 23 26 27 28 24 21 26 26 26 30 31 34 38 41 42 40 40 37 32 33 33 32 32 32 33 37 37 40 41 37 35 35 31 31 30 29 30 30 28 26 26 24 17 17 18 16 23 28 28 28 27 31 32 32 30 27 25 25 24 24 23 22 22 20 18 15 14 15
17 17 19 20 22 25 25 25 22 18 16 13 10 9 10 15 19 16 15 18 21 24 25 25 23 23 28 28 27 31 31 33 37 39 41 42 40 37 35 35 34 34 35 34 34 36 34 35 38 35 32 32 31 32 33 33 33 32 30 29 29 25 18 14 11 14 24 26 31 34 27 28 32 31 29 28 26 25 25 24 23 22 22 18 16 16 15 15
15 16 16 17 19 21 24 24 19 15 15 12 10 11 12 16 18 16 14 14 19 22 21 22 24 24 29 31 30 30 30 34 37 37 38 40 38 38 37 34 35 38 36 34 33 34 33 32 34 35 31 30 31 34 36 36 35 34 32 33 31 24 20 17 10 15 26 26 31 36 19 17 29 32 29 30 28 26 25 24 23 23 22 19 17 17 15 14
12 13 14 15 17 20 22 21 16 15 15 13 11 15 17 20 17 11 9 9 15 20 20 20 21 22 32 38 33 28 28 32 35 34 34 35 33 34 37 37 38 39 36 33 31 32 32 31 33 35 32 30 31 35 36 36 36 36 34 34 31 23 21 20 15 18 32 31 33 37 21 14 23 31 31 31 31 29 27 25 25 24 23 21 20 19 17 14
8 9 12 14 16 19 19 18 17 16 16 15 16 21 23 21 15 7 5 5 10 14 17 20 21 21 30 37 34 29 25 26 31 31 30 30 30 32 36 38 39 38 35 31 30 33 33 31 33 35 33 32 35 37 36 36 37 37 34 32 26 21 19 18 17 20 32 36 33 33 31 24 23 30 32 31 33 32 31 29 26 26 24 23 22 21 19 16
4 7 10 13 14 16 17 18 17 16 17 19 22 26 25 20 14 10 6 1 1 6 10 19 23 19 25 34 37 32 25 27 30 30 27 25 29 33 36 38 38 37 35 33 32 32 33 33 35 36 33 35 39 38 34 36 39 38 34 28 22 18 17 16 16 18 23 29 29 28 30 22 18 31 32 29 34 33 32 31 27 28 26 24 24 21 20 18
3 5 7 11 12 15 17 17 17 18 21 22 25 28 23 17 15 11 4 0 4 4 4 17 25 21 25 36 38 30 28 30 27 26 28 24 27 34 36 35 33 33 33 34 31 27 31 35 32 32 34 36 38 34 33 37 38 37 31 25 20 16 16 16 16 18 18 20 24 31 33 17 10 28 35 29 33 34 32 30 26 27 26 23 23 22 21 20
4 5 7 10 12 15 16 16 19 21 22 23 26 28 22 18 18 11 2 3 5 2 3 18 28 25 28 39 38 28 29 32 24 26 31 28 27 30 31 29 27 28 29 30 29 26 29 31 28 29 30 30 30 28 33 38 35 32 27 23 20 18 19 17 17 19 14 12 26 38 41 25 10 25 40 37 37 36 31 29 27 26 25 25 25 24 24 22
6 7 7 10 12 16 17 17 21 21 20 24 27 27 23 21 18 9 2 4 5 3 6 19 26 25 30 41 40 29 29 33 29 31 33 32 32 30 30 31 28 27 29 31 32 27 24 27 31 33 29 24 24 27 33 36 34 30 26 23 19 17 20 17 14 17 8 6 27 38 40 30 14 22 41 41 37 36 32 32 33 31 30 29 28 28 27 25
6 7 8 10 13 16 16 17 20 17 20 28 26 25 26 20 12 10 3 5 6 6 6 16 23 24 30 39 39 31 30 33 34 35 33 34 38 36 34 37 34 29 29 33 33 29 28 29 31 33 31 28 27 29 33 34 34 33 30 26 16 9 11 11 6 9 7 6 19 31 35 24 12 19 37 42 37 34 33 33 33 34 34 32 31 30 29 28
5 8 10 11 13 15 15 18 18 15 22 29 24 25 27 14 8 13 2 9 6 5 2 14 21 21 29 39 40 32 28 32 36 35 33 34 37 38 35 36 37 30 24 28 32 30 29 30 32 33 33 33 33 33 35 36 35 35 35 31 17 7 4 6 3 1 6 7 10 27 31 14 6 12 27 39 38 32 32 32 32 32 32 31 29 28 27 28
4 8 10 12 13 14 15 16 15 15 22 26 22 24 24 9 2 7 3 9 4 1 3 14 17 18 26 38 42 35 29 30 34 33 32 34 36 39 39 37 38 33 23 24 31 31 25 24 32 37 34 33 36 35 34 35 35 36 36 31 22 14 7 4 4 3 6 6 10 22 19 5 5 8 16 33 37 32 30 30 31 32 30 28 26 25 23 24
5 7 9 11 12 13 13 14 15 14 19 24 24 24 22 9 2 3 4 7 7 5 6 14 16 20 24 30 38 38 31 29 32 30 28 33 38 39 42 41 38 34 26 23 28 33 28 25 31 35 32 32 34 34 31 31 32 33 33 31 28 24 14 6 4 7 12 8 7 11 7 3 8 8 14 27 31 30 28 28 29 30 29 28 26 24 21 20
5 7 9 10 12 14 12 12 14 12 16 23 25 25 23 12 3 4 8 11 13 12 6 12 18 23 24 24 29 35 34 28 27 27 23 28 37 38 39 42 39 35 31 25 24 27 23 24 31 32 30 32 32 31 32 30 29 30 32 35 31 21 14 8 5 8 12 7 3 7 10 13 14 11 18 25 26 28 28 28 29 28 28 28 25 22 19 17
5 7 8 9 11 12 11 11 12 11 14 21 22 22 23 16 3 6 12 14 14 13 7 7 17 22 23 22 23 27 34 31 25 24 22 23 32 38 38 40 40 39 34 25 21 23 16 16 29 32 28 32 33 30 32 31 29 29 32 34 26 16 15 12 6 5 5 4 3 7 15 21 17 13 21 27 27 29 30 29 29 28 27 26 24 22 19 18
4 6 7 8 9 9 10 12 12 13 15 19 20 18 21 19 4 9 15 18 16 12 8 3 10 16 20 23 21 21 29 34 27 22 21 21 26 33 37 38 39 41 37 26 19 22 17 12 22 31 28 29 32 32 33 32 31 30 28 27 23 17 18 17 8 3 3 3 1 6 15 20 19 20 26 30 31 33 33 31 29 28 28 26 25 23 21 19
4 6 7 8 8 7 11 14 13 15 16 17 19 17 17 19 5 10 15 17 15 9 4 4 6 11 16 19 20 20 25 31 30 23 20 22 23 27 33 36 37 40 39 31 21 19 20 15 16 26 29 27 30 36 38 36 33 29 24 25 28 23 20 20 14 7 6 4 2 5 10 13 18 23 25 26 30 32 32 32 31 30 29 27 26 24 21 18
6 7 8 9 9 9 12 13 10 13 13 11 15 15 13 13 4 11 13 12 11 6 2 5 8 10 11 12 15 21 24 26 29 25 19 20 22 24 29 33 35 39 39 35 28 20 19 19 16 20 27 30 32 35 39 38 35 31 25 24 27 24 19 19 17 13 10 7 4 4 4 11 19 24 23 23 26 29 30 31 31 30 30 28 27 24 21 18
10 10 11 12 11 10 10 10 7 8 8 6 9 12 11 9 8 13 12 8 7 2 5 8 9 8 8 9 10 15 20 24 28 27 20 19 22 24 27 30 33 40 40 37 36 27 19 20 19 18 26 35 35 32 34 36 35 32 28 25 24 21 18 14 10 13 13 9 9 8 4 11 22 26 25 23 24 26 28 29 30 29 29 29 28 25 20 18
13 13 14 14 13 10 9 9 7 5 7 5 5 9 9 9 11 13 9 7 6 2 6 9 7 6 7 5 6 9 12 20 27 29 23 19 21 24 25 25 29 39 42 38 39 34 20 15 19 20 26 32 30 28 32 34 33 32 28 26 22 18 21 18 9 9 12 9 11 11 5 9 21 28 28 24 23 26 27 29 30 30 30 29 26 22 18 18
14 16 16 16 15 13 10 9 7 7 7 4 4 6 7 9 11 11 7 6 5 4 5 8 7 5 5 3 5 7 6 13 24 29 25 20 20 21 22 22 24 35 42 38 37 36 25 17 18 17 20 26 27 26 28 29 30 33 32 31 27 20 20 21 14 11 13 12 12 8 3 7 19 25 28 25 24 27 28 30 31 30 29 26 21 19 18 19
14 16 17 16 16 13 9 9 8 8 6 3 4 5 8 9 10 9 5 4 6 7 7 7 7 4 3 2 6 8 7 6 18 26 24 22 22 20 19 21 24 32 42 42 37 35 28 21 20 14 9 13 19 19 24 28 29 33 34 34 32 24 18 20 20 16 15 16 17 9 3 10 19 23 27 28 26 26 27 28 28 26 25 22 18 18 20 21
14 15 15 14 13 11 8 8 5 3 1 5 7 8 9 7 7 6 4 7 7 7 7 6 8 7 5 3 6 10 7 8 11 19 21 22 23 23 20 22 25 31 41 44 37 33 29 21 19 14 8 7 10 11 22 31 30 30 31 31 30 23 17 19 23 20 14 16 20 16 10 18 23 24 26 28 26 25 25 25 25 23 21 18 17 20 23 24
13 13 12 10 10 7 5 3 1 2 3 7 7 7 8 7 6 2 5 10 9 6 6 6 5 4 4 2 8 10 4 5 5 7 16 18 18 21 21 23 27 29 37 40 33 29 29 23 19 17 15 17 16 15 24 31 29 27 28 28 27 22 15 18 24 25 20 18 19 20 19 25 30 29 28 28 27 25 25 25 25 24 20 17 18 21 24 24
12 11 10 8 6 4 3 1 3 3 4 8 9 7 8 9 8 3 4 7 10 5 2 3 2 1 3 3 9 8 5 6 1 1 12 18 14 13 16 22 27 27 32 37 30 25 25 24 20 16 15 16 14 14 21 28 27 26 25 26 29 25 18 18 23 27 26 21 16 17 21 25 29 29 28 27 26 24 24 25 25 22 18 17 19 21 22 22
10 9 8 7 4 2 2 2 4 6 7 9 11 10 10 10 8 4 3 3 4 2 4 5 4 2 1 4 8 7 6 7 3 3 9 14 14 13 12 17 24 27 31 34 30 26 24 23 21 16 13 13 10 11 18 24 25 25 24 24 27 28 24 21 22 26 27 24 20 19 21 23 24 25 25 24 23 22 23 24 24 21 18 17 18 18 19 19
8 6 5 3 2 1 2 3 6 8 9 9 11 11 9 7 4 1 2 4 5 5 6 6 4 1 4 4 5 5 6 6 4 5 5 7 14 14 9 12 20 27 33 33 29 29 25 20 21 19 14 13 9 9 14 18 20 22 23 22 22 26 29 25 22 23 23 20 19 20 22 23 24 26 29 28 26 25 25 26 25 21 18 17 17 17 17 16
5 3 1 1 2 3 5 6 7 8 8 8 10 9 7 6 5 3 3 5 5 6 7 5 3 2 4 4 5 5 5 4 3 5 6 5 10 9 4 7 16 27 35 32 28 31 28 18 21 23 14 12 7 7 9 12 13 15 20 22 21 24 28 27 22 22 22 17 15 18 23 25 24 26 30 32 31 30 29 29 27 22 17 17 16 14 13 13
5 3 2 1 3 5 7 8 8 8 7 8 9 8 7 8 8 6 6 7 6 6 8 5 2 5 7 5 6 6 5 2 1 4 6 6 8 8 7 6 8 21 32 32 28 32 31 20 21 25 15 13 10 7 6 8 8 7 13 20 21 22 25 25 20 18 21 20 19 22 24 23 22 24 29 32 33 33 32 31 28 22 18 17 14 11 10 10
4 3 2 3 4 4 5 5 5 5 5 6 6 7 7 7 9 9 8 9 8 7 9 7 5 7 10 7 5 6 6 4 1 2 5 7 9 8 8 7 2 14 25 28 28 30 32 25 22 22 16 14 15 11 8 8 5 2 8 15 18 18 20 21 18 14 15 16 16 20 20 18 18 22 28 32 35 35 33 31 27 22 18 15 13 12 10 9
Wind_Direction
277 275 274 273 272 271 269 267 265 262 260 258 257 256 256 255 254 252 250 247 245 242 241 240 239 238 238 237 237 235 235 235 236 237 234 229 233 232 229 228 226 226 225 226 222 215 214 211 206 204 204 200 196 193 196 194 183 181 184 195 207 203 188 173 158 67 14 40 133 159 161 184 196 205 202 186 180 195 168 154 161 159 163 180 169 167 178 186
276 274 273 272 271 271 270 268 266 263 261 259 257 256 255 254 254 253 251 248 246 243 241 240 239 238 237 236 236 235 234 234 235 236 230 224 231 231 227 225 224 223 220 219 214 207 204 197 197 202 202 197 193 188 191 192 187 186 188 197 203 188 166 159 148 66 69 54 131 179 188 180 205 218 193 184 171 177 170 155 162 169 164 165 163 168 175 186
275 273 272 270 270 269 269 268 267 264 262 260 258 256 255 253 253 252 251 250 247 244 241 240 239 238 236 236 235 235 234 235 236 233 224 224 228 228 225 223 221 219 214 211 205 199 195 192 192 190 191 193 190 188 191 192 191 190 193 200 196 181 168 158 154 72 93 29 155 193 191 177 197 213 189 187 164 167 181 168 173 185 178 172 172 183 185 187
273 272 271 270 269 267 267 267 266 265 263 261 259 257 256 254 253 251 250 249 248 245 242 240 238 237 236 235 235 235 234 236 237 230 221 225 225 223 223 218 217 216 211 209 203 198 194 196 197 184 182 187 184 188 193 193 192 194 203 205 192 191 174 135 113 338 124 15 278 186 162 172 183 191 190 200 174 169 190 182 190 211 206 205 200 200 195 186
272 271 270 269 269 267 266 265 265 265 264 262 259 258 257 255 253 251 250 248 247 246 243 241 238 237 235 235 234 233 234 238 239 228 221 224 221 220 221 215 215 211 208 208 202 199 197 196 199 191 180 175 178 187 190 189 192 198 211 213 206 216 186 142 104 3 124 335 231 175 138 148 163 182 202 221 212 195 198 190 194 219 219 221 215 204 196 187
270 269 268 268 267 267 265 264 263 263 263 263 260 258 257 256 254 252 250 248 246 245 243 241 239 237 234 234 233 231 231 233 236 228 221 221 218 217 216 214 213 208 206 206 201 199 197 194 199 198 179 170 179 182 178 177 192 206 212 216 222 233 202 172 238 353 248 245 206 173 135 131 164 185 201 226 219 198 196 201 196 208 207 210 217 212 202 191
269 267 266 265 265 265 265 263 262 261 261 261 261 259 256 256 255 252 250 248 245 243 242 241 239 237 235 234 231 230 228 223 224 224 219 217 215 215 214 213 212 209 207 205 204 200 196 196 200 199 178 173 179 173 168 171 194 216 212 216 231 240 210 191 276 273 243 219 195 176 141 131 180 191 193 191 197 188 185 189 196 206 205 213 223 215 206 193
272 269 266 264 262 263 263 263 261 260 260 259 260 259 257 255 254 253 250 248 246 242 241 240 239 237 235 234 231 230 227 221 220 221 218 215 213 213 213 213 212 210 208 205 206 201 197 197 198 198 181 176 178 168 169 185 206 222 214 216 239 245 223 217 275 265 221 196 186 171 138 128 191 199 202 189 185 184 180 179 197 213 206 212 221 211 205 194
272 272 269 266 263 260 260 262 261 260 258 258 257 258 258 255 253 252 250 247 245 242 240 238 238 236 235 234 232 231 225 217 221 221 218 213 210 212 211 212 212 209 207 205 204 200 201 198 196 200 184 176 179 170 175 203 212 218 216 218 239 237 222 225 266 273 227 212 197 172 144 112 210 201 173 184 192 178 178 181 194 208 201 201 204 204 202 196
269 271 272 269 265 261 258 258 260 259 257 257 255 255 256 255 253 250 249 246 244 241 239 238 236 235 234 233 233 231 216 206 214 214 213 210 206 208 210 210 211 209 207 205 204 203 202 197 194 201 192 180 179 175 184 205 204 204 219 239 248 243 232 234 246 251 230 231 229 198 175 164 223 216 164 163 177 169 169 177 186 198 197 195 196 196 197 197
264 268 271 271 269 266 260 257 257 258 257 256 254 253 253 253 252 249 248 246 244 242 240 238 236 234 233 233 233 226 210 208 211 211 211 209 202 199 203 207 210 209 206 205 205 204 201 192 191 200 197 187 181 183 191 197 204 211 227 243 245 244 239 238 237 227 219 229 229 213 205 200 220 244 186 165 176 177 168 170 179 193 197 196 196 196 194 196
255 259 263 267 270 269 265 260 256 256 257 256 253 250 249 250 250 249 248 246 244 242 240 239 236 235 233 233 230 216 214 213 210 212 212 210 205 198 195 201 208 209 206 206 204 203 197 187 191 199 199 191 186 188 192 193 210 230 246 246 234 237 239 228 223 221 216 217 201 200 215 209 222 242 188 172 183 186 176 169 174 187 198 201 199 198 197 197
249 252 256 259 264 269 270 265 259 256 254 254 254 249 246 247 248 248 247 245 243 241 240 239 237 235 235 234 218 201 214 211 206 210 210 210 207 202 195 193 202 207 207 206 202 201 196 189 194 199 198 194 189 183 186 196 213 233 248 243 225 225 233 216 209 217 221 228 211 205 210 203 217 219 181 174 183 183 178 171 170 179 191 197 198 202 200 192
246 247 251 252 256 263 268 268 264 258 254 252 252 249 245 244 245 247 245 244 242 240 239 239 238 236 237 232 202 195 211 207 203 205 207 209 206 204 198 189 194 203 203 202 200 198 195 192 195 200 199 194 189 185 186 196 207 224 233 229 224 223 222 207 203 210 217 234 226 214 209 192 197 201 184 177 182 186 186 175 169 175 182 189 198 205 200 184
243 244 248 249 250 254 258 265 266 262 256 251 249 249 245 242 242 244 244 242 241 240 239 239 239 237 237 229 200 198 207 207 202 198 204 209 206 205 199 189 190 199 199 196 196 196 193 194 197 200 199 192 191 196 201 200 200 215 225 218 219 223 218 206 204 204 206 225 219 203 199 186 185 196 195 192 189 191 192 185 181 181 181 187 195 197 192 188
239 240 245 246 245 248 251 255 261 262 259 253 248 247 244 241 240 241 242 241 240 239 238 238 237 238 238 225 207 204 205 206 201 195 202 208 207 205 200 193 190 195 198 194 192 193 191 195 199 200 198 194 199 204 210 217 211 213 222 213 211 216 214 208 207 204 201 211 207 193 194 198 200 201 200 200 196 192 196 198 194 186 182 186 189 190 191 198
239 237 241 243 241 244 247 247 253 260 260 257 251 247 244 240 239 239 240 241 240 239 238 237 236 238 236 220 213 210 206 204 200 199 204 210 207 202 201 198 192 194 196 193 192 191 191 196 199 199 198 197 201 205 217 229 221 213 212 206 209 214 211 209 204 202 202 200 196 194 200 209 207 205 202 198 194 191 196 198 192 188 184 184 187 189 198 208
241 236 237 241 239 241 246 246 248 254 256 258 253 247 243 239 239 237 238 240 237 235 236 237 235 234 230 218 213 208 205 202 198 201 208 210 203 197 202 201 194 191 192 193 192 191 192 196 198 200 200 199 200 203 213 219 211 205 202 202 211 212 210 212 203 200 202 198 199 203 209 213 183 192 195 191 190 191 193 192 189 193 191 186 189 191 200 215
245 238 237 239 238 239 243 244 244 247 252 255 254 248 241 238 239 236 235 236 233 230 233 237 232 223 217 212 205 197 196 195 194 200 207 209 202 197 203 204 196 189 190 195 193 191 192 194 197 201 201 199 199 201 207 209 205 204 199 203 215 213 212 215 205 201 204 205 208 206 209 203 172 177 184 183 186 190 191 192 191 193 193 190 191 195 203 213
253 244 239 238 237 238 241 241 239 243 248 249 251 247 239 237 237 235 233 232 230 227 229 233 228 214 206 208 206 198 192 191 192 196 203 206 201 197 203 207 199 188 189 196 194 190 191 194 199 201 200 197 196 199 203 205 205 206 202 205 215 217 215 215 206 201 206 205 203 205 206 182 167 172 182 181 183 190 193 191 188 186 190 193 194 197 202 208
260 250 241 238 239 239 241 241 237 238 243 242 245 241 232 231 234 236 236 234 229 225 224 224 221 206 196 202 203 195 191 192 191 192 198 202 198 197 201 204 200 191 189 192 192 190 192 200 202 202 199 196 197 198 201 203 201 200 204 207 217 224 220 215 209 206 213 204 194 205 190 162 166 173 179 182 184 192 194 187 182 184 188 190 191 193 201 213
264 254 245 240 239 236 237 239 234 234 238 237 237 228 210 213 224 234 238 236 230 227 227 223 221 204 186 191 193 187 190 192 190 191 196 198 198 199 198 200 201 196 188 185 189 192 198 205 203 199 199 198 199 199 202 203 198 198 207 214 226 229 222 220 216 215 222 205 190 201 183 157 168 179 181 188 190 189 186 183 182 185 187 184 184 190 204 218
265 256 250 243 236 232 233 235 230 228 230 230 221 198 186 201 213 227 238 240 233 228 230 228 223 205 184 184 190 190 191 190 189 191 194 197 200 201 198 199 201 198 190 186 190 194 202 207 200 196 199 200 200 201 203 204 202 204 211 220 227 224 224 228 220 217 219 207 195 195 175 158 170 180 182 188 193 187 178 180 183 183 184 181 182 192 207 216
263 254 248 242 233 228 226 227 223 218 218 216 204 193 196 200 207 223 240 251 243 229 231 231 224 206 184 180 193 195 190 189 188 189 193 198 200 201 202 199 199 200 195 191 194 199 205 207 198 196 200 202 202 202 205 206 207 210 212 219 223 222 226 225 223 219 203 196 200 189 154 147 168 175 181 184 191 193 182 180 182 181 183 181 185 194 200 209
263 252 244 238 231 222 219 220 214 206 204 200 199 197 190 187 199 219 235 256 255 235 229 228 223 206 182 182 195 194 188 190 186 182 188 194 196 199 200 199 199 202 200 193 198 206 208 205 197 196 200 204 206 206 205 205 209 214 214 214 217 222 227 222 231 211 176 164 190 191 151 135 165 170 177 182 187 190 185 187 186 184 186 184 188 195 198 204
259 247 240 236 227 215 213 211 201 196 191 184 186 178 169 175 186 209 227 267 275 246 229 222 218 203 188 188 190 188 192 192 181 178 184 188 191 195 195 196 199 204 202 195 200 209 206 201 199 197 200 205 209 210 207 203 212 220 212 208 216 227 230 232 241 207 181 175 188 194 182 155 166 171 174 178 185 186 186 190 192 190 190 190 195 201 204 208
248 228 230 227 217 210 205 198 193 189 182 179 176 165 162 171 175 178 202 292 291 247 228 213 204 199 195 192 186 185 191 185 177 179 182 181 186 192 195 196 198 202 201 195 203 211 202 198 202 202 204 207 208 212 207 202 213 218 207 207 222 230 230 238 245 218 198 190 185 189 187 171 175 182 177 180 186 184 186 190 193 195 195 199 204 207 209 211
226 204 214 213 204 198 191 186 185 178 176 176 169 162 160 166 171 166 160 338 285 205 213 202 195 194 191 188 188 188 179 172 179 181 174 176 186 190 195 197 198 199 198 196 204 209 199 197 205 206 207 212 212 213 205 201 211 212 205 215 229 233 235 240 247 233 206 186 178 188 189 171 178 188 181 187 190 184 188 194 196 199 200 204 209 211 214 215
190 180 189 194 191 187 181 174 170 169 170 170 165 159 157 162 170 165 152 215 161 154 192 186 185 184 178 181 186 185 171 167 179 182 171 176 189 192 194 195 197 200 200 201 206 208 202 200 205 208 211 216 217 216 205 201 209 209 208 224 234 239 238 239 251 239 209 188 187 193 192 178 172 189 187 192 196 193 194 197 201 205 208 213 215 218 219 220
149 153 165 180 184 182 173 161 168 176 169 162 162 160 159 163 162 156 153 166 159 213 215 177 180 178 172 178 181 177 173 170 170 176 176 180 188 194 195 190 193 200 203 206 208 211 209 205 204 208 215 216 217 217 206 201 206 209 215 228 233 235 234 242 250 228 204 197 201 196 194 193 180 194 197 197 202 206 204 204 208 214 220 224 223 224 225 225
137 143 160 176 179 175 169 167 179 184 166 156 160 163 165 161 158 166 177 139 146 200 183 170 176 177 173 178 178 171 174 174 168 172 177 180 185 192 193 188 189 198 203 207 206 207 211 211 207 208 212 214 215 215 206 202 205 210 220 229 230 228 230 242 236 210 192 216 212 200 193 198 198 199 203 203 205 209 211 216 219 221 226 229 231 232 233 233
140 148 161 174 175 170 173 180 188 184 162 158 162 165 162 155 172 200 160 89 130 144 161 171 176 177 175 179 179 173 174 175 172 175 179 180 185 192 194 190 189 193 202 205 203 204 209 212 211 210 211 212 215 214 208 207 209 213 220 224 220 202 211 229 216 191 187 213 220 203 191 199 218 204 204 206 205 206 211 219 224 226 230 234 237 239 240 241
151 158 166 173 170 171 182 189 192 185 166 163 165 165 160 154 201 202 139 35 101 125 156 177 177 177 176 180 182 176 173 172 171 177 184 184 187 194 197 196 194 195 201 201 200 204 209 213 215 213 212 212 214 214 209 208 210 213 218 220 210 158 155 220 205 133 194 190 200 196 192 200 237 211 205 206 207 208 212 218 225 232 236 239 241 244 247 248
170 168 171 173 170 180 192 194 195 186 169 167 168 167 168 171 199 190 329 7 62 105 159 169 177 178 178 184 186 180 173 170 170 175 186 191 191 196 198 199 200 201 200 197 200 202 205 215 214 210 212 212 214 216 210 206 207 210 215 221 217 197 178 193 187 161 175 138 139 178 189 204 205 202 202 202 206 210 213 218 224 230 234 237 240 242 247 248
187 180 177 174 177 188 195 196 198 187 169 168 172 175 179 187 124 106 24 26 34 30 140 166 178 177 181 190 191 188 182 174 172 173 185 198 199 198 199 199 202 203 200 197 202 203 206 217 210 205 211 211 213 218 213 207 209 210 212 221 224 214 200 189 200 181 165 135 108 148 152 138 164 167 186 198 204 208 212 218 221 226 229 232 236 236 239 243
192 191 186 181 188 194 195 199 202 191 171 169 176 182 183 186 179 69 49 44 34 31 93 163 174 176 182 189 193 196 192 184 178 178 187 203 205 202 200 201 201 202 202 199 200 201 207 220 210 202 210 211 210 214 212 208 209 208 211 220 223 214 198 190 189 168 156 144 112 117 118 136 144 149 180 193 200 205 213 219 221 226 227 229 235 236 240 245
191 189 191 191 195 197 193 194 199 195 182 177 182 188 189 193 184 47 37 38 36 24 29 144 167 179 183 183 191 196 195 195 191 190 196 201 206 206 202 202 203 203 203 200 203 204 204 221 213 207 211 210 205 208 210 210 209 207 211 218 217 209 207 207 189 163 144 112 140 149 144 151 149 149 175 187 193 200 209 216 220 226 229 231 236 237 243 249
185 187 196 195 195 198 187 184 191 194 190 188 190 193 200 205 194 36 29 28 21 2 356 86 154 180 184 183 188 188 194 200 197 197 204 200 205 208 203 204 207 206 203 199 206 209 204 219 214 207 210 207 201 206 209 208 211 213 213 212 208 206 211 209 196 178 153 102 133 170 163 169 170 164 171 185 193 198 205 211 218 225 230 234 235 239 246 249
149 178 183 179 180 184 182 185 189 187 187 193 196 200 208 210 220 21 28 19 358 338 350 48 110 157 175 181 189 190 195 201 197 197 205 202 205 209 206 207 208 205 203 203 208 204 203 217 212 204 211 207 199 204 206 202 204 209 208 204 207 214 214 208 206 200 163 142 168 169 173 197 194 181 184 195 199 202 206 209 215 224 230 234 236 243 249 249
128 158 157 156 162 167 181 192 194 185 183 190 202 210 218 219 268 16 32 15 336 311 56 78 109 130 143 154 177 193 199 204 200 198 204 203 203 206 207 211 211 204 200 204 211 211 210 218 218 208 208 204 199 200 200 197 195 199 199 197 204 213 212 205 211 212 180 147 147 146 183 219 205 198 207 212 208 209 212 212 216 224 228 232 237 243 246 246
119 139 137 137 149 160 174 182 181 184 182 182 207 217 224 244 326 15 38 25 342 330 96 97 115 112 97 114 148 176 194 208 206 203 206 205 203 204 204 208 210 203 200 207 214 216 216 221 225 211 195 198 204 203 199 198 197 197 200 201 203 208 201 188 202 209 188 162 171 171 183 212 202 200 207 213 214 213 214 215 219 223 227 232 237 240 240 240
109 117 119 122 129 135 146 151 144 159 171 180 222 225 234 272 333 12 37 32 11 56 92 82 97 100 72 83 135 142 175 205 208 208 209 209 211 210 205 208 208 201 202 210 212 211 211 224 233 217 194 198 209 206 201 204 205 203 203 206 211 218 211 196 187 194 181 160 170 168 160 199 197 197 200 205 214 216 217 218 220 224 229 233 235 235 235 233
104 106 113 119 121 122 132 138 131 142 161 192 230 230 261 301 336 359 10 16 34 76 70 53 66 95 61 53 171 145 142 194 207 211 211 214 221 215 207 210 206 200 205 212 214 210 211 229 235 214 192 194 198 199 203 211 216 213 211 212 216 229 228 214 212 206 185 169 164 151 113 189 188 192 197 201 209 214 218 219 221 225 228 230 232 232 232 230
107 113 121 125 126 126 129 130 130 148 170 236 271 291 312 323 332 335 350 50 77 68 47 42 53 58 13 346 183 158 99 147 198 208 210 215 224 219 212 213 207 202 204 210 214 209 208 224 226 199 170 186 190 197 209 215 220 220 218 217 220 232 240 226 220 212 195 187 186 178 146 175 183 190 194 199 205 209 213 218 223 229 232 233 234 229 227 227
110 118 126 130 128 120 113 115 127 164 215 305 310 332 345 347 333 329 51 83 79 49 36 47 50 38 7 347 183 166 101 99 172 200 208 214 223 226 223 216 210 205 203 207 213 210 206 218 220 195 161 176 189 199 209 210 214 219 219 218 221 228 237 226 208 191 185 193 198 201 178 163 176 188 192 200 208 207 210 217 222 228 233 236 233 226 224 225
106 111 120 129 125 116 114 121 202 284 341 333 330 354 8 5 353 346 87 61 48 35 29 42 47 35 29 72 177 183 155 115 138 198 208 210 221 228 225 214 209 208 206 208 214 214 212 219 224 216 200 194 194 198 207 209 209 211 213 215 218 218 224 227 207 191 191 192 196 212 200 172 174 186 194 203 210 211 213 216 219 223 226 226 222 220 221 225
101 103 108 111 112 127 167 222 295 303 326 326 330 354 7 7 17 75 117 42 29 37 68 69 75 61 44 125 178 189 185 183 170 181 205 213 220 221 222 213 209 209 207 209 211 210 212 216 220 218 198 187 184 182 198 208 210 211 213 217 221 218 219 229 220 210 207 198 193 208 204 190 187 193 201 207 209 213 216 216 218 222 225 226 220 217 218 222
98 102 107 104 103 142 194 251 291 306 316 314 318 334 351 1 16 57 130 101 62 108 153 126 102 137 137 142 168 181 184 192 190 139 187 211 211 206 217 214 210 208 205 207 210 209 211 213 208 196 164 157 162 163 183 201 209 211 213 218 224 224 226 234 233 226 221 216 215 209 199 203 206 203 208 211 207 210 214 214 216 218 223 223 215 210 212 216
93 101 110 101 81 60 335 307 298 306 313 311 313 322 333 338 343 24 159 159 149 162 168 133 90 146 190 148 135 165 182 175 134 110 136 180 189 196 209 201 201 205 203 204 206 209 213 208 200 194 161 146 164 166 173 190 200 205 211 217 224 226 228 234 235 227 220 219 224 212 195 199 205 203 203 204 206 209 210 210 214 215 214 208 202 200 205 211
79 95 121 37 3 345 330 315 302 301 301 302 308 309 305 296 280 235 211 199 179 176 176 154 105 164 180 145 133 162 178 167 113 68 64 119 161 168 153 162 187 197 200 203 202 206 211 200 191 196 167 125 158 188 173 178 187 199 211 219 226 227 227 232 233 222 212 206 206 199 189 189 196 202 202 202 206 208 207 207 212 212 205 195 192 195 200 208
48 75 101 21 342 326 320 313 305 301 292 286 290 289 283 283 279 261 226 217 206 181 180 182 164 174 173 144 140 159 157 152 143 45 48 88 123 120 101 106 172 189 193 198 199 204 209 196 182 190 168 116 137 180 178 173 172 189 208 214 221 224 223 226 229 222 216 209 194 187 190 193 196 201 202 204 207 207 206 208 209 204 196 191 190 191 194 201
31 36 18 358 343 329 328 324 315 309 296 287 282 280 281 276 270 262 236 222 217 191 188 194 175 173 178 155 135 161 162 153 147 39 53 87 100 106 98 76 155 189 184 187 188 195 204 198 183 184 169 127 132 148 154 158 145 154 205 206 208 210 214 219 217 209 213 218 207 200 206 213 208 199 197 201 206 206 205 209 209 201 193 187 184 185 188 194
Height
3077 3076 3076 3076 3076 3076 3076 3076 3076 3076 3076 3077 3077 3078 3078 3079 3080 3082 3083 3084 3085 3087 3088 3089 3091 3093 3094 3096 3097 3099 3100 3101 3102 3103 3107 3113 3112 3112 3115 3118 3119 3120 3121 3122 3123 3125 3126 3127 3128 3129 3129 3131 3133 3134 3136 3137 3138 3137 3137 3138 3138 3139 3141 3143 3145 3145 3145 3145 3148 3150 3150 3149 3146 3147 3147 3146 3148 3149 3151 3154 3155 3156 3156 3156 3157 3158 3159 3160
3074 3073 3073 3073 3073 3073 3073 3073 3073 3073 3073 3074 3074 3075 3076 3076 3077 3078 3080 3081 3082 3083 3085 3086 3088 3089 3091 3092 3094 3096 3097 3099 3099 3100 3108 3111 3108 3111 3114 3116 3117 3118 3119 3121 3122 3123 3125 3126 3127 3128 3129 3130 3132 3133 3135 3136 3136 3136 3136 3136 3136 3139 3141 3143 3144 3144 3144 3144 3148 3150 3150 3149 3146 3145 3146 3146 3147 3148 3151 3154 3156 3155 3155 3156 3157 3157 3159 3160
3070 3070 3070 3070 3070 3070 3069 3070 3070 3070 3070 3071 3071 3072 3073 3074 3074 3075 3076 3077 3079 3080 3082 3083 3084 3086 3088 3089 3091 3092 3094 3096 3095 3100 3107 3107 3106 3110 3112 3113 3115 3116 3118 3119 3120 3122 3123 3124 3124 3126 3128 3129 3130 3132 3134 3135 3135 3135 3136 3135 3136 3139 3140 3142 3143 3143 3143 3143 3147 3150 3149 3149 3147 3145 3146 3146 3148 3150 3151 3153 3155 3155 3154 3155 3157 3157 3159 3160
3067 3067 3067 3066 3066 3066 3066 3066 3066 3066 3067 3068 3068 3069 3070 3071 3072 3072 3073 3074 3075 3077 3078 3080 3081 3082 3084 3086 3087 3089 3092 3092 3093 3099 3104 3102 3105 3108 3109 3112 3113 3114 3116 3117 3119 3120 3121 3122 3123 3124 3125 3127 3129 3131 3132 3133 3134 3135 3135 3135 3137 3139 3141 3142 3142 3142 3142 3142 3146 3148 3147 3148 3148 3146 3146 3146 3147 3150 3151 3153 3154 3155 3154 3155 3156 3157 3159 3160
3063 3063 3063 3063 3063 3063 3063 3063 3063 3063 3063 3064 3065 3066 3067 3068 3069 3069 3070 3071 3072 3073 3075 3076 3077 3079 3081 3082 3084 3087 3089 3090 3091 3097 3099 3100 3103 3105 3107 3109 3110 3112 3114 3115 3117 3118 3120 3121 3122 3122 3123 3125 3127 3129 3130 3132 3134 3134 3134 3136 3138 3139 3140 3141 3142 3142 3142 3143 3145 3147 3146 3147 3147 3146 3145 3146 3147 3149 3150 3152 3154 3154 3155 3155 3156 3157 3159 3161
3058 3059 3059 3059 3059 3059 3059 3060 3060 3060 3060 3061 3062 3063 3064 3065 3066 3066 3067 3068 3069 3070 3072 3073 3074 3075 3077 3079 3081 3083 3086 3088 3089 3093 3096 3097 3101 3102 3105 3106 3108 3110 3111 3113 3115 3117 3119 3119 3121 3122 3122 3124 3126 3128 3130 3132 3133 3133 3134 3136 3138 3139 3140 3141 3142 3141 3142 3143 3144 3146 3146 3146 3146 3146 3145 3146 3147 3148 3150 3152 3153 3154 3154 3155 3156 3157 3159 3161
3053 3054 3054 3055 3055 3056 3056 3056 3056 3057 3057 3058 3059 3060 3061 3062 3063 3063 3064 3065 3066 3067 3068 3069 3071 3072 3074 3075 3077 3079 3081 3085 3088 3090 3093 3095 3098 3100 3102 3103 3105 3107 3109 3111 3113 3115 3117 3118 3120 3121 3122 3123 3125 3127 3129 3131 3131 3132 3133 3135 3137 3138 3138 3140 3141 3140 3141 3143 3144 3145 3145 3145 3145 3146 3146 3146 3147 3148 3150 3151 3153 3153 3154 3156 3157 3158 3160 3161
3048 3049 3049 3050 3051 3052 3052 3052 3053 3053 3054 3054 3056 3057 3058 3059 3060 3061 3061 3062 3063 3064 3065 3066 3067 3069 3071 3071 3074 3075 3077 3084 3088 3090 3091 3093 3095 3097 3099 3101 3103 3105 3107 3110 3112 3114 3116 3116 3119 3121 3121 3122 3124 3126 3128 3130 3130 3130 3132 3133 3135 3137 3137 3139 3141 3140 3140 3142 3143 3144 3145 3145 3145 3145 3146 3147 3148 3149 3150 3151 3152 3153 3154 3156 3157 3158 3160 3161
3045 3045 3045 3045 3046 3047 3048 3049 3049 3050 3051 3051 3053 3054 3055 3056 3057 3058 3058 3059 3060 3061 3062 3063 3064 3066 3067 3068 3070 3071 3078 3085 3086 3087 3088 3090 3092 3094 3096 3099 3101 3103 3106 3108 3110 3112 3113 3115 3118 3120 3120 3122 3123 3125 3127 3128 3129 3130 3131 3133 3135 3136 3137 3139 3140 3140 3141 3142 3142 3144 3145 3145 3144 3145 3146 3147 3148 3149 3150 3151 3152 3153 3154 3156 3157 3159 3160 3161
3041 3041 3041 3041 3042 3043 3044 3045 3045 3046 3047 3048 3050 3051 3052 3053 3054 3054 3055 3056 3056 3058 3059 3059 3061 3062 3063 3065 3066 3070 3078 3081 3079 3081 3083 3085 3088 3091 3093 3096 3099 3101 3104 3106 3108 3109 3112 3115 3118 3119 3120 3120 3121 3123 3125 3126 3127 3129 3131 3132 3133 3135 3137 3138 3139 3140 3141 3142 3143 3144 3145 3145 3145 3144 3146 3147 3148 3149 3150 3152 3152 3153 3154 3156 3157 3158 3159 3160
3037 3038 3038 3038 3038 3038 3040 3041 3042 3042 3043 3045 3046 3048 3049 3049 3050 3051 3052 3053 3054 3055 3056 3056 3058 3058 3060 3061 3064 3071 3076 3075 3074 3078 3080 3081 3084 3087 3091 3094 3096 3099 3102 3104 3106 3108 3112 3115 3117 3118 3118 3119 3120 3121 3123 3124 3126 3127 3128 3130 3131 3133 3135 3136 3138 3140 3141 3141 3142 3144 3145 3145 3145 3144 3146 3148 3149 3149 3150 3152 3153 3154 3155 3156 3156 3157 3158 3159
3033 3035 3035 3035 3035 3035 3035 3037 3038 3039 3040 3041 3043 3045 3046 3046 3047 3047 3049 3050 3051 3052 3052 3054 3054 3055 3057 3057 3063 3071 3072 3071 3073 3076 3078 3080 3083 3085 3087 3091 3094 3097 3100 3102 3105 3108 3111 3114 3115 3115 3117 3118 3119 3120 3122 3124 3125 3126 3128 3128 3129 3130 3132 3134 3136 3138 3140 3140 3142 3144 3144 3144 3145 3144 3145 3147 3148 3149 3150 3151 3152 3154 3155 3155 3156 3156 3158 3159
3028 3030 3031 3032 3032 3032 3032 3033 3035 3035 3036 3038 3039 3041 3042 3043 3044 3045 3046 3047 3048 3049 3049 3050 3051 3053 3052 3054 3064 3069 3067 3068 3070 3072 3075 3078 3081 3083 3084 3087 3091 3095 3098 3101 3104 3107 3110 3112 3113 3114 3116 3117 3117 3119 3120 3122 3123 3125 3126 3127 3128 3129 3129 3132 3135 3136 3138 3139 3141 3143 3143 3144 3144 3143 3144 3146 3148 3149 3150 3151 3152 3153 3154 3155 3156 3156 3157 3159
3024 3025 3027 3028 3028 3029 3030 3030 3031 3032 3033 3034 3036 3037 3039 3040 3041 3041 3042 3044 3045 3045 3046 3047 3048 3050 3049 3054 3064 3065 3062 3064 3065 3068 3072 3075 3079 3082 3083 3085 3088 3092 3095 3099 3103 3105 3108 3110 3111 3113 3114 3115 3116 3118 3118 3119 3121 3122 3124 3125 3126 3127 3128 3131 3133 3134 3136 3137 3139 3141 3141 3143 3144 3142 3143 3146 3147 3149 3150 3151 3151 3152 3153 3154 3155 3156 3157 3158
3019 3020 3022 3023 3025 3026 3027 3027 3028 3029 3030 3031 3032 3033 3035 3037 3038 3038 3039 3041 3042 3042 3043 3044 3045 3046 3046 3054 3061 3060 3058 3059 3062 3066 3070 3074 3077 3080 3082 3084 3086 3090 3093 3097 3100 3103 3106 3108 3109 3110 3112 3114 3115 3116 3116 3117 3119 3120 3122 3123 3124 3126 3127 3129 3131 3133 3135 3136 3137 3139 3140 3143 3144 3143 3143 3146 3147 3149 3150 3150 3151 3151 3152 3152 3154 3155 3157 3158
3014 3016 3017 3019 3021 3022 3023 3024 3025 3026 3027 3028 3029 3030 3031 3034 3035 3035 3037 3038 3039 3040 3040 3040 3041 3042 3046 3053 3057 3055 3055 3058 3063 3067 3069 3073 3076 3079 3082 3083 3084 3088 3091 3094 3097 3100 3103 3105 3106 3108 3110 3112 3113 3114 3115 3116 3117 3118 3120 3122 3124 3125 3126 3128 3130 3131 3133 3135 3136 3138 3140 3141 3143 3143 3143 3144 3146 3147 3149 3150 3149 3150 3151 3152 3154 3155 3156 3158
3009 3011 3012 3014 3017 3018 3019 3021 3022 3023 3024 3025 3026 3026 3029 3031 3032 3033 3034 3035 3036 3037 3037 3037 3038 3041 3047 3051 3052 3053 3057 3061 3063 3066 3069 3073 3075 3078 3080 3081 3083 3085 3089 3092 3094 3097 3099 3101 3103 3105 3107 3109 3110 3112 3114 3113 3113 3116 3119 3121 3123 3124 3126 3127 3128 3130 3133 3135 3136 3138 3139 3139 3141 3142 3141 3142 3143 3145 3147 3148 3148 3148 3150 3152 3154 3156 3157 3157
3004 3006 3008 3010 3012 3014 3016 3017 3019 3021 3021 3022 3023 3024 3026 3028 3029 3031 3031 3032 3033 3034 3034 3034 3037 3041 3045 3048 3050 3053 3056 3060 3062 3064 3068 3070 3073 3076 3077 3079 3081 3083 3087 3089 3091 3094 3096 3098 3101 3103 3104 3105 3107 3109 3109 3109 3111 3115 3117 3119 3121 3123 3125 3126 3127 3129 3131 3134 3135 3137 3138 3138 3139 3140 3139 3140 3141 3143 3145 3146 3147 3148 3151 3153 3154 3155 3156 3157
3000 3002 3004 3006 3008 3010 3012 3014 3016 3018 3019 3020 3021 3022 3024 3025 3026 3028 3028 3028 3029 3030 3031 3032 3034 3039 3043 3044 3046 3047 3048 3053 3057 3060 3064 3067 3070 3073 3075 3078 3079 3081 3084 3085 3088 3091 3093 3095 3097 3097 3097 3099 3102 3104 3106 3109 3112 3115 3117 3118 3120 3122 3123 3125 3127 3129 3131 3133 3135 3136 3136 3138 3138 3138 3137 3138 3139 3140 3142 3144 3146 3149 3151 3153 3154 3155 3156 3156
2997 2998 3000 3002 3005 3007 3009 3011 3013 3015 3016 3017 3018 3020 3022 3023 3024 3024 3023 3024 3025 3028 3029 3028 3031 3036 3039 3041 3042 3043 3044 3046 3050 3056 3061 3064 3068 3071 3074 3076 3077 3078 3079 3082 3085 3088 3091 3092 3090 3089 3092 3097 3101 3104 3107 3110 3112 3114 3116 3117 3119 3121 3123 3125 3126 3128 3131 3133 3135 3135 3135 3136 3136 3137 3136 3137 3139 3140 3141 3143 3146 3148 3151 3152 3153 3154 3155 3155
2994 2995 2997 2999 3001 3003 3006 3008 3010 3012 3014 3015 3016 3018 3020 3022 3022 3021 3020 3021 3023 3024 3024 3025 3028 3032 3036 3038 3039 3041 3043 3043 3046 3052 3057 3062 3066 3069 3071 3072 3074 3074 3076 3080 3084 3087 3089 3086 3085 3089 3094 3098 3101 3104 3107 3109 3111 3113 3115 3116 3118 3119 3122 3125 3126 3128 3130 3132 3134 3134 3134 3135 3136 3136 3137 3137 3138 3140 3142 3143 3145 3147 3149 3151 3153 3154 3154 3155
2991 2992 2994 2996 2997 3000 3003 3005 3007 3010 3012 3013 3015 3017 3019 3020 3018 3017 3017 3018 3019 3020 3020 3022 3026 3030 3033 3035 3037 3038 3039 3041 3045 3049 3053 3058 3061 3064 3067 3070 3071 3072 3075 3079 3081 3083 3083 3081 3084 3091 3095 3099 3101 3104 3106 3107 3110 3111 3112 3114 3115 3117 3121 3123 3125 3127 3129 3130 3132 3132 3132 3135 3137 3137 3138 3138 3139 3141 3144 3145 3146 3147 3149 3151 3153 3153 3154 3155
2988 2989 2990 2992 2994 2997 3000 3002 3004 3007 3009 3012 3013 3016 3017 3016 3015 3014 3014 3015 3016 3018 3018 3021 3026 3030 3032 3033 3034 3035 3036 3039 3043 3047 3051 3053 3056 3061 3065 3067 3069 3072 3074 3075 3076 3078 3078 3079 3085 3091 3094 3097 3100 3102 3104 3106 3108 3108 3110 3112 3112 3115 3120 3121 3124 3126 3127 3128 3129 3129 3131 3135 3137 3137 3137 3138 3140 3141 3143 3145 3146 3147 3149 3151 3152 3153 3154 3154
2986 2987 2988 2989 2991 2994 2997 2999 3001 3004 3007 3010 3011 3013 3014 3014 3014 3013 3013 3013 3013 3015 3017 3020 3024 3027 3030 3032 3032 3033 3036 3039 3041 3044 3048 3050 3053 3058 3062 3065 3069 3070 3071 3072 3075 3077 3077 3080 3086 3091 3093 3095 3097 3100 3102 3103 3104 3106 3108 3108 3109 3114 3119 3121 3124 3124 3125 3127 3126 3125 3131 3135 3136 3137 3137 3137 3139 3140 3142 3143 3145 3147 3149 3150 3151 3152 3153 3154
2983 2984 2986 2987 2989 2992 2994 2997 3000 3003 3005 3007 3009 3010 3011 3011 3012 3012 3013 3013 3012 3013 3016 3018 3021 3024 3028 3028 3028 3031 3035 3035 3037 3042 3045 3048 3051 3055 3059 3064 3067 3067 3069 3073 3075 3076 3078 3082 3087 3089 3091 3093 3095 3097 3098 3100 3102 3103 3105 3105 3107 3113 3118 3120 3123 3123 3123 3125 3123 3124 3131 3137 3136 3135 3136 3137 3138 3139 3140 3141 3143 3145 3148 3149 3150 3151 3152 3153
2981 2982 2984 2985 2987 2989 2992 2995 2999 3001 3002 3005 3006 3007 3008 3009 3011 3011 3013 3014 3011 3010 3013 3016 3019 3022 3023 3022 3025 3031 3033 3034 3038 3041 3043 3047 3050 3054 3058 3061 3063 3065 3069 3073 3075 3076 3078 3082 3085 3087 3089 3091 3093 3094 3095 3099 3101 3101 3101 3103 3107 3113 3117 3119 3122 3123 3120 3119 3122 3124 3127 3134 3136 3135 3135 3135 3136 3136 3137 3139 3141 3143 3146 3147 3149 3150 3151 3152
2980 2981 2982 2984 2986 2988 2991 2994 2997 2999 3001 3003 3003 3005 3007 3008 3009 3010 3013 3015 3010 3007 3010 3013 3017 3018 3019 3023 3026 3028 3031 3035 3039 3041 3042 3046 3050 3054 3056 3057 3060 3064 3068 3073 3073 3071 3074 3080 3082 3084 3087 3088 3089 3089 3092 3097 3098 3097 3100 3103 3107 3113 3115 3116 3119 3121 3119 3117 3122 3124 3123 3127 3133 3133 3133 3134 3133 3134 3135 3136 3139 3141 3143 3145 3146 3148 3149 3151
2979 2980 2981 2983 2985 2988 2991 2993 2995 2998 3000 3001 3001 3003 3005 3007 3009 3011 3013 3014 3008 3005 3007 3010 3014 3016 3018 3023 3025 3026 3030 3035 3037 3039 3041 3045 3048 3051 3054 3056 3059 3063 3067 3069 3068 3068 3073 3077 3078 3081 3084 3084 3084 3086 3091 3095 3095 3095 3100 3104 3107 3112 3114 3114 3116 3118 3119 3119 3120 3121 3121 3124 3129 3130 3131 3133 3132 3133 3133 3134 3137 3138 3140 3142 3144 3146 3148 3149
2979 2980 2981 2984 2985 2987 2990 2992 2995 2997 2998 2999 3001 3003 3005 3007 3009 3011 3014 3012 3005 3003 3005 3007 3011 3013 3016 3020 3023 3027 3031 3033 3036 3038 3040 3044 3047 3049 3052 3056 3060 3064 3066 3067 3067 3070 3073 3075 3077 3081 3081 3080 3082 3087 3091 3093 3093 3096 3100 3103 3107 3111 3112 3112 3113 3114 3117 3118 3116 3116 3117 3120 3126 3128 3128 3130 3130 3130 3131 3133 3135 3137 3138 3140 3142 3144 3146 3148
2979 2980 2982 2984 2986 2987 2990 2992 2994 2995 2996 2999 3001 3003 3005 3007 3009 3011 3014 3009 3004 3004 3005 3005 3008 3011 3014 3017 3022 3028 3030 3032 3035 3038 3040 3043 3047 3050 3053 3058 3061 3064 3066 3067 3069 3071 3073 3076 3078 3078 3078 3080 3084 3087 3089 3091 3093 3097 3100 3102 3106 3110 3111 3111 3111 3111 3114 3113 3110 3112 3113 3115 3122 3124 3122 3122 3124 3125 3128 3131 3133 3135 3137 3138 3140 3142 3144 3146
2981 2981 2983 2985 2986 2988 2989 2991 2992 2993 2995 2998 3001 3003 3005 3007 3009 3011 3010 3005 3003 3004 3004 3005 3009 3011 3013 3016 3020 3025 3028 3031 3034 3036 3039 3042 3045 3049 3052 3055 3058 3061 3063 3065 3066 3069 3072 3074 3074 3074 3077 3081 3084 3085 3087 3090 3093 3096 3098 3101 3105 3108 3109 3109 3108 3108 3110 3108 3107 3110 3113 3113 3116 3118 3117 3118 3121 3124 3127 3129 3130 3132 3134 3135 3137 3139 3141 3143
2982 2983 2984 2985 2986 2988 2989 2990 2991 2993 2995 2998 3000 3002 3004 3007 3008 3006 3004 3002 3003 3006 3006 3007 3009 3011 3014 3017 3021 3024 3026 3029 3031 3035 3038 3040 3042 3045 3047 3049 3051 3054 3057 3059 3063 3067 3069 3070 3071 3074 3076 3078 3081 3083 3085 3088 3091 3092 3095 3098 3101 3104 3106 3106 3106 3106 3106 3106 3106 3108 3112 3113 3112 3113 3115 3118 3120 3124 3126 3128 3129 3130 3132 3134 3135 3137 3140 3141
2984 2984 2984 2985 2987 2988 2989 2990 2991 2993 2995 2997 2999 3002 3003 3006 3005 3002 3001 3002 3004 3006 3006 3009 3010 3011 3014 3017 3020 3023 3025 3028 3030 3033 3037 3039 3041 3044 3046 3048 3050 3051 3053 3057 3062 3064 3066 3068 3069 3072 3073 3074 3077 3078 3080 3082 3085 3087 3089 3092 3096 3099 3102 3103 3104 3104 3104 3105 3106 3107 3110 3112 3111 3112 3115 3117 3120 3123 3126 3127 3129 3130 3131 3133 3135 3137 3139 3140
2984 2985 2985 2986 2987 2988 2989 2990 2992 2994 2995 2997 2999 3002 3003 3004 3003 3002 3003 3003 3004 3005 3006 3008 3011 3013 3015 3016 3019 3022 3024 3027 3029 3032 3036 3038 3039 3041 3043 3046 3048 3051 3054 3057 3059 3060 3062 3062 3062 3065 3068 3071 3073 3074 3076 3080 3082 3084 3087 3090 3093 3094 3096 3099 3100 3101 3102 3103 3105 3107 3110 3111 3111 3113 3114 3116 3119 3122 3124 3126 3127 3128 3130 3132 3134 3136 3137 3137
2985 2985 2986 2987 2988 2988 2990 2991 2992 2994 2996 2997 2999 3001 3002 3002 3003 3003 3003 3004 3004 3004 3005 3007 3009 3012 3015 3017 3019 3021 3023 3026 3029 3031 3034 3035 3036 3037 3039 3042 3046 3050 3053 3055 3056 3057 3058 3057 3058 3063 3066 3069 3072 3073 3077 3080 3081 3083 3086 3087 3088 3089 3093 3096 3097 3097 3098 3101 3105 3108 3110 3111 3111 3113 3114 3116 3118 3120 3122 3123 3124 3126 3128 3130 3132 3133 3134 3135
2985 2986 2987 2988 2988 2989 2990 2991 2992 2994 2996 2997 2999 3000 3000 3001 3002 3002 3003 3003 3004 3004 3006 3008 3010 3012 3014 3017 3019 3021 3024 3026 3028 3030 3031 3033 3035 3036 3039 3041 3044 3047 3049 3051 3053 3055 3057 3057 3060 3063 3065 3068 3071 3072 3076 3077 3078 3081 3083 3082 3084 3089 3093 3094 3095 3096 3095 3099 3106 3109 3110 3111 3112 3114 3115 3115 3117 3119 3121 3121 3122 3124 3126 3128 3129 3130 3131 3132
2986 2986 2987 2988 2989 2990 2991 2992 2993 2995 2996 2997 2998 2999 3001 3001 3001 3002 3002 3002 3003 3005 3007 3008 3010 3012 3013 3016 3018 3020 3022 3025 3026 3028 3029 3032 3033 3034 3038 3040 3043 3045 3048 3051 3053 3055 3057 3058 3059 3062 3063 3066 3070 3072 3075 3076 3077 3079 3079 3080 3085 3090 3092 3092 3094 3095 3094 3099 3106 3107 3108 3109 3110 3112 3114 3115 3116 3118 3119 3120 3121 3122 3123 3125 3126 3127 3129 3130
2986 2987 2988 2989 2990 2991 2992 2993 2994 2995 2996 2998 2999 3000 3001 3001 3001 3002 3002 3002 3003 3006 3007 3007 3009 3011 3012 3014 3016 3018 3020 3022 3024 3026 3028 3030 3031 3032 3037 3039 3042 3045 3048 3051 3053 3054 3057 3058 3058 3060 3062 3064 3068 3071 3072 3074 3076 3077 3078 3081 3085 3086 3087 3088 3091 3093 3094 3101 3107 3107 3108 3108 3107 3107 3109 3112 3114 3115 3117 3118 3119 3120 3121 3122 3124 3125 3127 3128
2986 2987 2988 2989 2991 2992 2993 2994 2996 2997 2998 2999 3001 3001 3001 3001 3002 3002 3002 3003 3005 3006 3007 3007 3008 3010 3012 3014 3016 3017 3018 3020 3022 3025 3027 3028 3030 3032 3036 3038 3041 3044 3047 3051 3052 3053 3056 3057 3057 3058 3060 3063 3066 3065 3066 3068 3072 3076 3078 3080 3082 3083 3083 3085 3088 3089 3092 3101 3106 3107 3108 3107 3105 3106 3106 3108 3111 3112 3114 3116 3116 3118 3119 3120 3122 3124 3125 3126
2986 2987 2989 2990 2992 2993 2994 2996 2997 2999 3000 3001 3002 3002 3002 3002 3003 3002 3002 3004 3006 3006 3007 3006 3007 3009 3011 3013 3015 3016 3018 3019 3022 3024 3026 3028 3030 3031 3034 3037 3039 3042 3046 3049 3050 3052 3055 3056 3056 3057 3059 3060 3060 3059 3061 3066 3069 3072 3075 3076 3079 3080 3082 3084 3087 3087 3089 3095 3100 3104 3106 3103 3102 3104 3105 3107 3109 3110 3112 3114 3114 3116 3117 3119 3121 3122 3123 3125
2987 2988 2990 2991 2993 2995 2996 2998 2999 3000 3001 3002 3003 3003 3003 3003 3002 3002 3002 3003 3005 3006 3006 3006 3007 3009 3010 3012 3014 3015 3017 3019 3021 3024 3026 3027 3029 3029 3032 3034 3037 3040 3044 3047 3048 3050 3053 3054 3055 3055 3055 3055 3055 3058 3063 3066 3068 3071 3073 3074 3076 3078 3080 3082 3084 3086 3086 3089 3093 3097 3099 3098 3098 3101 3103 3105 3107 3108 3110 3112 3113 3114 3116 3118 3119 3121 3122 3123
2989 2990 2991 2993 2995 2997 2998 2999 3001 3002 3002 3003 3003 3003 3003 3003 3002 3001 3002 3003 3005 3006 3007 3007 3008 3009 3010 3011 3012 3014 3015 3017 3020 3022 3025 3027 3028 3028 3031 3033 3036 3039 3042 3044 3045 3047 3051 3053 3054 3054 3053 3054 3056 3060 3064 3066 3068 3071 3072 3073 3075 3077 3079 3079 3081 3083 3085 3086 3088 3090 3093 3094 3096 3098 3100 3103 3105 3106 3108 3110 3111 3113 3114 3116 3118 3119 3121 3121
2991 2992 2994 2995 2997 2998 3000 3001 3001 3002 3003 3003 3003 3003 3004 3003 3002 3001 3002 3003 3005 3006 3006 3007 3008 3010 3010 3011 3012 3013 3014 3016 3018 3021 3025 3027 3027 3028 3030 3033 3035 3038 3040 3041 3043 3047 3051 3052 3052 3053 3053 3055 3058 3061 3064 3065 3067 3068 3070 3071 3073 3075 3077 3078 3080 3082 3083 3084 3085 3087 3090 3093 3094 3096 3099 3102 3103 3105 3106 3108 3110 3111 3113 3115 3117 3119 3119 3119
2994 2994 2996 2997 2998 2999 3001 3001 3002 3003 3004 3004 3004 3004 3004 3003 3003 3002 3003 3003 3004 3005 3006 3007 3008 3010 3011 3011 3012 3013 3015 3016 3019 3022 3025 3026 3026 3027 3030 3032 3033 3035 3036 3037 3040 3045 3048 3049 3049 3051 3052 3054 3057 3058 3059 3061 3062 3063 3066 3069 3071 3073 3076 3078 3080 3081 3081 3082 3082 3084 3087 3090 3092 3095 3098 3099 3101 3103 3104 3106 3108 3110 3112 3114 3116 3117 3117 3117
2997 2997 2998 2999 3000 3001 3002 3003 3003 3004 3004 3004 3003 3003 3003 3003 3003 3003 3003 3004 3004 3005 3006 3007 3009 3010 3011 3012 3012 3014 3015 3017 3019 3022 3024 3024 3024 3026 3028 3030 3031 3033 3034 3036 3040 3044 3046 3047 3047 3048 3049 3051 3053 3053 3053 3055 3058 3061 3063 3067 3069 3073 3075 3077 3078 3078 3079 3080 3080 3081 3083 3087 3091 3093 3095 3097 3098 3100 3102 3104 3106 3108 3110 3113 3114 3115 3115 3115
2999 2999 3000 3001 3002 3002 3003 3004 3004 3004 3004 3003 3003 3003 3003 3003 3003 3003 3004 3004 3005 3006 3007 3008 3009 3010 3011 3012 3013 3014 3015 3017 3019 3020 3021 3022 3023 3024 3025 3028 3029 3031 3033 3037 3040 3044 3045 3046 3047 3047 3048 3050 3051 3051 3053 3055 3057 3059 3061 3064 3068 3071 3074 3075 3075 3075 3076 3077 3079 3078 3080 3083 3088 3090 3092 3094 3096 3098 3100 3102 3104 3106 3108 3110 3111 3112 3113 3114
3001 3002 3002 3003 3003 3004 3004 3004 3005 3005 3005 3004 3003 3003 3003 3003 3002 3003 3004 3004 3005 3006 3007 3008 3009 3010 3011 3011 3012 3013 3015 3017 3018 3019 3019 3021 3022 3022 3023 3025 3027 3029 3032 3036 3040 3042 3044 3045 3046 3047 3047 3049 3050 3051 3053 3055 3056 3057 3060 3063 3066 3069 3071 3072 3072 3072 3073 3074 3075 3076 3078 3080 3084 3087 3089 3091 3093 3095 3097 3099 3102 3104 3107 3108 3109 3110 3111 3113
3003 3003 3004 3004 3004 3005 3005 3005 3005 3005 3005 3005 3004 3003 3003 3003 3003 3003 3004 3004 3005 3006 3007 3008 3009 3009 3009 3010 3011 3013 3014 3016 3017 3018 3019 3020 3022 3022 3022 3023 3026 3028 3031 3035 3038 3041 3042 3044 3045 3046 3046 3047 3049 3050 3051 3053 3054 3057 3059 3061 3064 3067 3069 3070 3070 3071 3071 3071 3072 3076 3078 3079 3082 3084 3086 3088 3091 3093 3095 3098 3102 3104 3106 3107 3107 3109 3111 3112
3005 3005 3005 3005 3005 3005 3005 3005 3005 3004 3005 3004 3004 3003 3004 3003 3003 3003 3004 3004 3005 3006 3007 3008 3008 3008 3009 3010 3011 3013 3014 3015 3017 3017 3018 3020 3021 3021 3021 3022 3024 3026 3030 3033 3037 3039 3041 3042 3044 3045 3045 3046 3048 3049 3050 3052 3053 3055 3058 3060 3062 3064 3066 3067 3069 3069 3070 3071 3072 3074 3077 3080 3082 3084 3086 3088 3090 3093 3096 3099 3101 3103 3104 3105 3107 3109 3111 3112
3006 3006 3006 3006 3006 3005 3005 3005 3005 3004 3004 3004 3004 3004 3004 3003 3003 3003 3004 3004 3005 3006 3007 3007 3007 3008 3009 3011 3012 3013 3014 3016 3017 3017 3018 3019 3020 3021 3021 3021 3022 3023 3027 3031 3035 3037 3038 3040 3042 3044 3044 3045 3047 3048 3049 3051 3052 3054 3057 3058 3060 3061 3063 3065 3066 3068 3069 3070 3071 3072 3075 3078 3082 3084 3086 3089 3090 3093 3096 3098 3100 3102 3103 3105 3107 3109 3111 3112
3007 3006 3006 3006 3006 3005 3005 3004 3004 3004 3004 3004 3004 3003 3003 3003 3002 3002 3003 3004 3005 3006 3007 3007 3008 3008 3010 3012 3013 3014 3015 3016 3017 3017 3018 3020 3021 3021 3021 3021 3021 3022 3024 3029 3032 3034 3036 3038 3040 3042 3044 3046 3047 3048 3049 3050 3052 3054 3055 3056 3057 3059 3060 3062 3064 3066 3067 3068 3069 3071 3073 3076 3079 3082 3085 3088 3090 3093 3095 3096 3098 3100 3102 3105 3108 3110 3111 3112
3007 3007 3007 3006 3006 3005 3005 3004 3004 3003 3003 3003 3003 3003 3003 3002 3002 3002 3002 3003 3004 3005 3006 3007 3007 3008 3010 3012 3013 3014 3015 3016 3017 3018 3019 3021 3022 3022 3021 3021 3021 3022 3023 3026 3029 3032 3034 3036 3038 3040 3042 3045 3046 3047 3049 3050 3052 3054 3055 3055 3056 3057 3059 3061 3063 3065 3066 3067 3068 3069 3071 3074 3076 3079 3082 3085 3089 3091 3094 3095 3097 3099 3102 3105 3107 3109 3111 3111